Location: Newark
(58.9986°N, 38.5006°E)
Time: 00:00:27
(UTC+00:00)

N. Korean satellite - Pass Details

Date: 09 December 2019
Orbit: 454 x 508 km, 97.2° (Epoch: 20 January)

Event Time Altitude Azimuth Distance (km) Brightness Sun altitude
Rises 03:47:30 0° 14° (NNE) 2,583 10.2 -15.7°
Reaches altitude 10° 03:49:36 10° 13° (NNE) 1,687 9.2 -15.5°
Maximum altitude 03:53:13 79° 288° (WNW) 497 6.4 -15.0°
Drops below altitude 10° 03:56:45 10° 201° (SSW) 1,642 9.2 -14.6°
Sets 03:58:46 0° 200° (SSW) 2,506 10.2 -14.4°
